sat.trackr.live / text

‹ back to catalog

ONEWEB-0109

NORAD 47259 · 2020-100B

PAYLOAD ACTIVE UNKNOWN

§ Identity

Operator
Country
UK
Launch date
2020-12-18
Launch site
VOSTO
Launch vehicle
Mass (kg)
RCS (m²)

Purposes: comms

External: N2YO · Heavens-Above · Gunter

§ Orbital elements

Epoch: 2026-05-25T02:51:05.641056Z

Period
109.72 min
Inclination
87.8961°
Eccentricity
0.0001618
Mean motion
13.12441815 rev/d
Perigee alt
1,212.5 km
Apogee alt
1,215.0 km
Semi-major
7,591.9 km
B*
1.0048e-3
RAAN
355.2459°
Arg perigee
88.2585°
Mean anomaly
271.8728°
Rev number
26,153

§ Raw data

ONEWEB-01091 47259U 20100B   26145.11881529  .00000374  00000+0  10048-2 0  99912 47259  87.8961 355.2459 0001618  88.2585 271.8728 13.12441815261535

JSON: /api/v1/satellites/47259 · /tle

For live sub-satellite position, see the globe view (requires WebGL).

§ Visibility from observer

Set your observer location to see the next 7 days of passes ≥ 10°. The values pass through the URL so the page stays shareable.

No JS? Fill the form by hand. The geolocation button needs JavaScript.